SES-20

Last updated on Mon Oct 14 2024 00:02:41 GMT+0000 (Coordinated Universal Time)

1 53960U 22123A 24287.50539869 -.00000103 00000+0 00000+0 0 9994 2 53960 0.0136 154.6202 0001652 319.9148 346.8912 1.00271092 7398
UTC large
Height (km)
Speed (km/s)
/
Latitude / Longitude
Inclination (degrees)
Orbital Period (minutes)
Azimuth
Elevation
Range (km)
Doppler Factor

Next 0 passes for location: London (51.5072 / 0.1276)

Sorry there are no passes over London.